Location: Narragansett
(41.4496°N, 71.4488°W)
Time: 03:42:39
(UTC+00:00)

Envisat - Visible Passes

Search period start: 18 September 2021 00:00
Search period end: 28 September 2021 00:00
Orbit: 764 x 766 km, 98.2° (Epoch: 17 September)

Date Brightness Start Highest point End Pass type
(mag) Time Alt. Az. Time Alt. Az. Time Alt. Az.
18 Sep 3.1 10:00:48 10° NNE 10:05:55 87° ESE 10:10:59 10° SSW visible
19 Sep 4.5 09:24:15 10° NNE 09:28:59 39° E 09:33:43 10° SSE visible
20 Sep 5.8 08:48:28 10° NE 08:51:52 18° E 08:55:14 10° SE visible
21 Sep 3.4 09:49:20 10° NNE 09:54:24 69° ESE 09:59:27 10° S visible
22 Sep 5.0 09:12:56 10° NE 09:17:25 31° E 09:21:52 10° SSE visible
23 Sep 6.0 08:37:41 10° ENE 08:40:14 14° E 08:42:46 10° ESE visible
24 Sep 3.9 09:37:53 10° NNE 09:42:52 54° E 09:47:49 10° S visible
25 Sep 5.4 09:01:43 10° NE 09:05:50 24° E 09:09:55 10° SSE visible
26 Sep 6.3 08:27:45 10° ENE 08:28:34 10° E 08:29:23 10° E visible
26 Sep 3.0 10:03:07 10° NNE 10:08:14 87° WNW 10:13:19 10° SSW visible
27 Sep 4.4 09:26:30 10° NNE 09:31:19 42° E 09:36:07 10° S visible
